Location: York
(31.8935°S, 116.7682°E)
Time: 05:22:47
(UTC+08:00)

X-37B - Pass Details

Date: 20 May 2021
Orbit: 386 x 389 km, 45.0° (Epoch: 10 June)

Event Time Altitude Azimuth Distance (km) Brightness Sun altitude
Exits shadow 06:28:29 - 228° (SW) 1,670 3.2 -6.6°
Reaches altitude 10° 06:29:05 10° 226° (SW) 1,432 2.9 -6.4°
Maximum altitude 06:32:14 51° 148° (SSE) 501 1.2 -5.8°
Drops below altitude 10° 06:35:21 10° 70° (ENE) 1,419 5.4 -5.2°
Sets 06:37:27 0° 65° (ENE) 2,269 7.3 -4.8°
